Location: Hannover
(52.3723°N, 9.7339°E)
Time: 02:16:03
(UTC+01:00)

ISS - Pass Details

Date: 09 January 2018
Orbit: 401 x 406 km, 51.6° (Epoch: 17 January)

Event Time Altitude Azimuth Distance (km) Brightness Sun altitude
Exits shadow 07:22:57 12° 270° (W) 1,375 -1.7 -9.4°
Maximum altitude 07:25:40 32° 207° (SSW) 730 -2.6 -9.1°
Drops below altitude 10° 07:28:38 10° 143° (SE) 1,463 0.1 -8.6°
Sets 07:30:50 0° 133° (SE) 2,322 1.7 -8.3°
